Tracking 29892 objects as of 21-Nov-2024
HD Live streaming from Space Station
objects crossing your sky now

NOAA 16 DEB

Track NOAA 16 DEB now!
10-day predictions


NORAD ID: 41717
Int'l Code: 2000-055PX
Perigee: 760.0 km
Apogee: 782.2 km
Inclination: 98.8 °
Period: 100.1 minutes
Semi major axis: 7142 km
RCS: Unknown
Launch date: September 21, 2000
Source: United States (US)
Launch site: AIR FORCE WESTERN TEST RANGE (AFWTR)

Note: This is SATELLITE DEBRIS
Your satellite tracking list
Your tracking list is empty




NASA's NSSDC Master Catalog

Two Line Element Set (TLE):
1 41717U 00055PX  24326.17617532  .00015110  00000-0  49581-2 0  9996
2 41717  98.8146  77.3093 0015509  15.3086 344.8566 14.38352400446594
Source of the keplerian elements: AFSPC